Location: Newark
(43.0000°N, 1.6781°W)
Time: 05:17:36
(UTC+00:00)

Explorer 7 - Pass Details

Date: 26 April 2021
Orbit: 484 x 677 km, 50.3° (Epoch: 07 May)

Event Time Altitude Azimuth Distance (km) Brightness Sun altitude
Rises 20:59:36 0° 293° (WNW) 2,662 11.6 -19.2°
Reaches altitude 10° 21:01:57 10° 304° (NW) 1,803 10.6 -19.5°
Maximum altitude 21:05:39 31° 8° (N) 997 8.4 -20.0°
Enters shadow 21:08:13 17° 61° (ENE) 1,473 8.8 -20.3°
Drops below altitude 10° 21:09:33 10° 72° (ENE) 1,911 - -20.5°
Sets 21:12:07 0° 82° (E) 2,850 - -20.9°
